Regional Weather Roundup
Issued by NWS

Home | Current Version | Previous Version | Graphics & Text | Print | Product List | Glossary On
Versions: 1 2 3 4 5 6 7 8 9 10 11 12 13 14 15 16 17 18 19 20 21 22 23 24 25 26 27 28 29 30 31 32 33 34 35 36 37 38 39 40 41 42 43 44 45 46 47 48 49 50
000
ASUS43 KLSX 211559
RWRMO

WEATHER SUMMARY FOR MISSOURI
NATIONAL WEATHER SERVICE SPRINGFIELD MO
1100 AM CDT SUN SEP 21 2014

NOTE: "FAIR" INDICATES FEW OR NO CLOUDS BELOW 12,000 FEET WITH NO
       SIGNIFICANT WEATHER AND/OR OBSTRUCTIONS TO VISIBILITY.
       CURRENT SKY AND/OR WEATHER CONDITIONS ARE NOT AVAILABLE FOR
       CHILLICOTHE AND FARMINGTON.

MOZ001>031-035>038-043-044-053-054-211700-
...NORTHERN AND WESTERN MISSOURI...

CITY           SKY/WX    TMP DP  RH WIND       PRES   REMARKS
KANSAS CTY INT MOSUNNY   71  53  52 NW14      30.18S
KANSAS C DTWN  SUNNY     74  53  48 NW8G16    30.16F
LEE`S SUMMIT   SUNNY     71  50  47 NW13      30.18R
ST JOSEPH      SUNNY     71  49  45 N17G24    30.18S
KIRKSVILLE     SUNNY     68  52  56 NW12      30.11S

$$
MOZ066>068-077>081-088>096-101>105-211700-
...SOUTHWEST MISSOURI...

CITY           SKY/WX    TMP DP  RH WIND       PRES   REMARKS
SPRINGFIELD    SUNNY     74  47  38 NE16      30.16R
JOPLIN         SUNNY     74  46  36 NE14G21   30.18R

$$
MOZ032>034-039>042-045>050-055>058-069>072-211700-
...CENTRAL MISSOURI...

CITY           SKY/WX    TMP DP  RH WIND       PRES   REMARKS
COLUMBIA       SUNNY     72  52  49 NW13      30.12R
JEFFERSON CITY SUNNY     74  48  39 NW10G20   30.11R
ROLLA          SUNNY     71  51  49 NW12      30.11R
SEDALIA        SUNNY     74  50  42 NW15G23   30.15R
OSAGE BEACH    SUNNY     72  48  43 NW3       30.13S

$$
MOZ051-052-059>065-211700-
...EAST CENTRAL MISSOURI...

CITY           SKY/WX    TMP DP  RH WIND       PRES   REMARKS
ST LOUIS INTL  SUNNY     74  53  48 NW13G24   30.06R
SPIRIT OF STL  SUNNY     73  52  47 NW12      30.05S
ST CHARLES     SUNNY     73  51  46 W13G18    30.04S

$$
MOZ072>076-082>087-097>100-106>115-211700-
...SOUTH CENTRAL AND SOUTHEAST MISSOURI...

CITY           SKY/WX    TMP DP  RH WIND       PRES   REMARKS
CAPE GIRARDEAU SUNNY     77  57  50 N16       30.03R
FARMINGTON     SUNNY     72  46  40 NW9G16    30.10R
POPLAR BLUFF   MOSUNNY   80  65  59 N9        30.02S
WEST PLAINS    SUNNY     76  54  46 N13       30.12R

$$


USA.gov is the U.S. government's official web portal to all federal, state and local government web resources and services.